BMCB-1 Weather Reports


time (UTC)temp
F
wind
direction
speed
knots
gust
knots
rain 1hr
in
rain 24hr
in
rain mn
in
humidity
%
barometer
mb
20260506202022 48 0 0.0 0.0 0.00 0.43 0.38 85 1016.3
20260506193022 49 0 0.0 0.0 0.00 0.46 0.38 91 1015.7
20260506192026 49 0 0.0 0.0 0.00 0.46 0.38 91 1015.6
20260506191021 50 0 0.0 0.0 0.00 0.47 0.38 90 1015.5
20260506190022 50 0 0.0 0.0 0.00 0.48 0.38 89 1015.4
20260506185037 50 0 0.0 0.0 0.00 0.49 0.38 90 1015.3
20260506184022 50 0 0.0 0.0 0.00 0.50 0.38 90 1015.1
20260506183022 50 0 0.0 0.0 0.00 0.51 0.38 91 1015.0
20260506182021 50 0 0.0 0.0 0.00 0.53 0.38 91 1014.9
20260506180021 51 0 0.0 0.0 0.00 0.56 0.38 90 1014.8
20260506175022 51 0 0.0 0.0 0.00 0.57 0.38 90 1014.6
20260506174032 51 0 0.0 0.0 0.00 0.57 0.38 90 1014.5
20260506173021 51 0 0.0 0.0 0.00 0.58 0.38 89 1014.4
20260506172046 51 0 0.0 0.0 0.00 0.59 0.38 88 1014.4
20260506171021 51 0 0.0 0.0 0.00 0.60 0.38 87 1014.3
20260506170017 51 0 0.0 0.0 0.00 0.61 0.38 87 1014.2
20260506165021 51 0 0.0 0.0 0.00 0.61 0.38 86 1014.2
20260506164020 51 0 0.0 0.0 0.00 0.61 0.38 86 1014.1
20260506163022 51 0 0.0 0.0 0.00 0.61 0.38 86 1014.0
20260506162030 52 0 0.0 0.0 0.00 0.61 0.38 86 1014.0
20260506161021 52 0 0.0 0.0 0.00 0.61 0.38 87 1014.0
20260506160021 52 0 0.0 0.0 0.00 0.61 0.38 87 1014.1
20260506154047 52 0 0.0 0.0 0.00 0.61 0.38 86 1014.1
20260506153021 51 0 0.0 0.0 0.00 0.61 0.38 85 1014.1
20260506152044 51 0 0.0 0.0 0.00 0.61 0.38 85 1014.0
20260506151044 51 0 0.0 0.0 0.00 0.61 0.38 86 1014.0
20260506150021 51 0 0.0 0.0 0.00 0.61 0.38 87 1014.0
20260506144021 51 0 0.0 0.0 0.00 0.61 0.38 86 1014.1
20260506143020 51 0 0.0 0.0 0.00 0.61 0.38 87 1014.0
20260506142017 51 0 0.0 0.0 0.00 0.61 0.38 88 1014.1
20260506140020 51 0 0.0 0.0 0.00 0.61 0.38 88 1014.1
20260506135022 50 0 0.0 0.0 0.00 0.61 0.38 89 1014.1
20260506134017 50 0 0.0 0.0 0.00 0.61 0.38 89 1014.2
20260506133045 50 0 0.0 0.0 0.00 0.61 0.38 87 1014.1
20260506132023 51 0 0.0 0.0 0.00 0.61 0.38 87 1014.1
20260506131022 51 0 0.0 0.0 0.00 0.61 0.38 88 1014.0
20260506124022 50 0 0.0 0.0 0.00 0.61 0.38 89 1013.8
20260506123022 50 0 0.0 0.0 0.00 0.61 0.38 90 1013.8
20260506122017 50 0 0.0 0.0 0.00 0.61 0.38 89 1013.8
20260506121021 49 0 0.0 0.0 0.00 0.61 0.38 89 1013.7
20260506120022 49 0 0.0 0.0 0.00 0.61 0.38 90 1013.6
20260506115022 49 0 0.0 0.0 0.00 0.61 0.38 91 1013.6
20260506114021 50 0 0.0 0.0 0.01 0.61 0.38 92 1013.4
20260506113043 50 0 0.0 0.0 0.01 0.61 0.38 94 1013.4
20260506111021 48 0 0.0 0.0 0.01 0.61 0.38 97 1013.6
20260506110021 47 0 0.0 0.0 0.01 0.61 0.38 97 1013.7
20260506105021 47 0 0.0 0.0 0.02 0.61 0.38 97 1013.7
20260506104018 47 0 0.0 0.0 0.02 0.61 0.38 97 1013.8
20260506103021 47 0 0.0 0.0 0.01 0.61 0.37 97 1013.8
20260506102023 47 0 0.0 0.0 0.02 0.61 0.37 97 1013.7
20260506101017 46 0 0.0 0.0 0.02 0.61 0.37 97 1013.7
20260506100019 47 0 0.0 0.0 0.02 0.61 0.37 97 1013.6
20260506095045 46 0 0.0 0.0 0.02 0.61 0.37 98 1013.5
20260506094018 46 0 0.0 0.0 0.02 0.60 0.36 98 1013.4
20260506093018 46 0 0.0 0.0 0.02 0.60 0.36 98 1013.4
20260506091023 46 0 0.0 0.0 0.02 0.59 0.35 98 1013.4
20260506090023 46 0 0.0 0.0 0.02 0.59 0.35 98 1013.3
20260506084022 46 0 0.0 0.0 0.01 0.59 0.35 98 1013.1
20260506083022 45 0 0.0 0.0 0.01 0.59 0.35 98 1013.0
20260506082042 45 0 0.0 0.0 0.00 0.58 0.34 98 1012.9
20260506081022 45 0 0.0 0.0 0.00 0.58 0.34 98 1012.9
20260506073020 45 0 0.0 0.0 0.02 0.59 0.34 98 1012.6
20260506072020 45 0 0.0 0.0 0.03 0.59 0.34 98 1012.5
20260506071016 45 0 0.0 0.0 0.03 0.60 0.34 98 1012.5
20260506062022 44 0 0.0 0.0 0.08 0.61 0.32 98 1012.2
20260506061017 44 0 0.0 0.0 0.07 0.59 0.31 98 1012.3
20260506051020 44 0 0.0 0.0 0.06 0.54 0.24 98 1012.2
20260506045022 45 0 0.0 0.0 0.05 0.53 0.23 98 1012.2
20260506044039 45 0 0.0 0.0 0.04 0.53 0.22 98 1012.1
20260506043042 45 0 0.0 0.0 0.03 0.51 0.20 98 1012.1
20260506042017 45 0 0.0 0.0 0.02 0.50 0.20 98 1012.1
20260506035017 45 0 0.0 0.0 0.02 0.49 0.18 98 1012.0
20260506034022 46 0 0.0 0.0 0.02 0.49 0.18 98 1012.1
20260506033022 46 0 0.0 0.0 0.02 0.49 0.18 97 1012.1
20260506032022 46 0 0.0 0.0 0.02 0.48 0.17 97 1012.1
20260506031020 46 0 0.0 0.0 0.02 0.48 0.17 97 1012.0
20260506030022 46 0 0.0 0.0 0.03 0.48 0.17 97 1012.1
20260506025017 46 0 0.0 0.0 0.03 0.47 0.17 97 1012.1
20260506024041 46 0 0.0 0.0 0.04 0.47 0.17 97 1012.1
20260506023016 46 0 0.0 0.0 0.04 0.46 0.16 97 1012.2
20260506021042 47 0 0.0 0.0 0.05 0.46 0.15 97 1012.2
20260506020016 47 0 0.0 0.0 0.06 0.46 0.15 97 1012.2
20260506015022 47 0 0.0 0.0 0.06 0.45 0.14 97 1012.2
20260506014042 47 0 0.0 0.0 0.06 0.44 0.13 97 1012.2
20260506012021 47 0 0.0 0.0 0.06 0.43 0.12 97 1012.3
20260506011022 47 0 0.0 0.0 0.05 0.42 0.11 97 1012.2
20260506010017 47 0 0.0 0.0 0.05 0.41 0.10 97 1012.3
20260506005023 47 0 0.0 0.0 0.04 0.40 0.09 97 1012.3
20260506004021 47 0 0.0 0.0 0.03 0.39 0.08 97 1012.4
20260506003039 47 0 0.0 0.0 0.04 0.39 0.08 97 1012.4
20260506002016 47 0 0.0 0.0 0.03 0.38 0.07 97 1012.5
20260506000044 47 0 0.0 0.0 0.04 0.37 0.06 97 1012.6
20260505235023 47 0 0.0 0.0 0.03 0.36 0.06 97 1012.7
20260505233034 48 0 0.0 0.0 0.04 0.35 0.05 98 1012.7
20260505232022 48 0 0.0 0.0 0.03 0.35 0.04 98 1012.8
20260505231037 48 0 0.0 0.0 0.04 0.35 0.04 98 1012.8
20260505230028 48 0 0.0 0.0 0.03 0.34 0.03 98 1012.9
20260505225047 48 0 0.0 0.0 0.03 0.33 0.02 98 1012.9
20260505224041 48 0 0.0 0.0 0.03 0.33 0.02 98 1012.9
20260505223045 48 0 0.0 0.0 0.03 0.32 0.02 97 1012.9
20260505221045 48 0 0.0 0.0 0.03 0.31 0.01 98 1012.9
20260505220025 48 0 0.0 0.0 0.03 0.31 0.00 98 1013.0
20260505215049 48 0 0.0 0.0 0.03 0.31 0.31 98 1013.1
20260505214048 48 0 0.0 0.0 0.03 0.30 0.30 98 1013.1
20260505213022 48 0 0.0 0.0 0.04 0.30 0.30 98 1013.2
20260505212048 48 0 0.0 0.0 0.04 0.29 0.29 98 1013.2
20260505210029 48 0 0.0 0.0 0.05 0.28 0.28 98 1013.3
20260505205038 48 0 0.0 0.0 0.04 0.28 0.28 98 1013.3
20260505204038 48 0 0.0 0.0 0.04 0.28 0.28 98 1013.3